Weather History for KBVS - November, 2013

Change the Weather History Date:

Sunday, November 10, 2013

  Actual Average Record
Temperature  
Mean Temperature 45 °F -  
Max Temperature 48 °F 53 °F 64 °F (1981)
Min Temperature 42 °F 39 °F 28 °F (1982)
Degree Days  
Heating Degree Days 20    
Moisture  
Dew Point 46 °F    
Average Humidity 100    
Maximum Humidity 100    
Minimum Humidity 100    
Precipitation  
Precipitation 0.00 in - - ()
Sea Level Pressure  
Sea Level Pressure 30.16 in    
Wind  
Wind Speed 5 mph (NNW)    
Max Wind Speed 9 mph    
Max Gust Speed -    
Visibility 10 miles    
Events      
Averages and records for this station are not official NWS values.
T = Trace of Precipitation, MM = Missing Value Source: NWS Daily Summary

Daily Weather History Graph

Daily Weather History Graph

Search for Another Location

Airport or City:

Trip Planner

Search our weather history database for the weather conditions in past years. The results will help you decide how hot, cold, wet, or windy it might be!

Date:

Astronomy

Nov. 10, 2013 Rise Set
Actual Time 7:10 AM PST 4:36 PM PST
Civil Twilight 6:36 AM PST 5:10 PM PST
Nautical Twilight 5:58 AM PST 5:47 PM PST
Astronomical Twilight 5:22 AM PST 6:24 PM PST
Moon 1:15 PM PST (11/10) No Moon Set
Length of Visible Light 10h 33m
Length of Day
9h 25m
First Quarter, 56% of the Moon is Illuminated
Nov 10
First Quarter
Nov 17
Full
Nov 25
Last Quarter
Dec 2
New
Dec 9
First Quarter

Hourly Weather History & Observations

Time (PST) Temp. Windchill Dew Point Humidity Pressure Visibility Wind Dir Wind Speed Gust Speed Precip Events Conditions
12:15 AM 46.4 °F 43.5 °F 46.4 °F 100% 30.14 in 10.0 mi NE 5.8 mph - 0.00 in   Mostly Cloudy
12:35 AM 46.4 °F 43.5 °F 46.4 °F 100% 30.14 in 10.0 mi ENE 5.8 mph - 0.00 in   Overcast
12:55 AM 46.4 °F 42.9 °F 46.4 °F 100% 30.14 in 10.0 mi NE 6.9 mph - 0.00 in   Overcast
1:15 AM 44.6 °F 40.2 °F 44.6 °F 100% 30.14 in 10.0 mi NE 8.1 mph - 0.00 in   Overcast
1:35 AM 44.6 °F 40.7 °F 44.6 °F 100% 30.14 in 10.0 mi NE 6.9 mph - 0.00 in   Overcast
1:55 AM 44.6 °F 42.2 °F 44.6 °F 100% 30.14 in 10.0 mi NNE 4.6 mph - 0.00 in   Overcast
2:15 AM 44.6 °F 43.1 °F 44.6 °F 100% 30.14 in 10.0 mi North 3.5 mph - 0.00 in   Overcast
2:35 AM 44.6 °F 43.1 °F 44.6 °F 100% 30.15 in 10.0 mi North 3.5 mph - 0.00 in   Overcast
2:55 AM 44.6 °F - 44.6 °F 100% 30.15 in 10.0 mi Calm Calm - 0.00 in   Overcast
3:15 AM 44.6 °F 43.1 °F 44.6 °F 100% 30.14 in 10.0 mi ENE 3.5 mph - 0.00 in   Overcast
3:35 AM 44.6 °F 43.1 °F 44.6 °F 100% 30.14 in 10.0 mi NNE 3.5 mph - 0.00 in   Overcast
3:55 AM 46.4 °F 43.5 °F 46.4 °F 100% 30.14 in 10.0 mi NNE 5.8 mph - 0.00 in   Overcast
4:15 AM 44.6 °F 41.4 °F 44.6 °F 100% 30.13 in 10.0 mi NNE 5.8 mph - 0.00 in   Overcast
4:35 AM 44.6 °F 41.4 °F 44.6 °F 100% 30.14 in 10.0 mi NNW 5.8 mph - 0.00 in   Overcast
4:55 AM 44.6 °F 42.2 °F 44.6 °F 100% 30.14 in 10.0 mi NNE 4.6 mph - 0.00 in   Overcast
5:15 AM 44.6 °F - 44.6 °F 100% 30.14 in 10.0 mi Calm Calm - 0.00 in   Overcast
5:35 AM 42.8 °F 39.3 °F 42.8 °F 100% 30.15 in 10.0 mi NW 5.8 mph - 0.00 in   Overcast
5:55 AM 42.8 °F - 42.8 °F 100% 30.14 in 10.0 mi Calm Calm - 0.00 in   Overcast
6:15 AM 44.6 °F - 44.6 °F 100% 30.14 in 10.0 mi Calm Calm - 0.00 in   Overcast
6:35 AM 42.8 °F 41.1 °F 42.8 °F 100% 30.15 in 10.0 mi NW 3.5 mph - 0.00 in   Overcast
6:55 AM 44.6 °F 43.1 °F 44.6 °F 100% 30.14 in 10.0 mi NW 3.5 mph - 0.00 in   Mostly Cloudy
7:15 AM 42.8 °F 40.1 °F 42.8 °F 100% 30.15 in 10.0 mi NW 4.6 mph - 0.00 in   Clear
7:35 AM 44.6 °F 41.4 °F 44.6 °F 100% 30.15 in 9.0 mi NW 5.8 mph - 0.00 in   Mostly Cloudy
7:55 AM 44.6 °F 42.2 °F 44.6 °F 100% 30.15 in 9.0 mi WNW 4.6 mph - 0.00 in   Overcast
8:15 AM 44.6 °F - 44.6 °F 100% 30.15 in 10.0 mi Calm Calm - 0.00 in   Mostly Cloudy
8:35 AM 44.6 °F 42.2 °F 44.6 °F 100% 30.16 in 10.0 mi NW 4.6 mph - 0.00 in   Mostly Cloudy
8:55 AM 46.4 °F 44.3 °F 46.4 °F 100% 30.16 in 10.0 mi North 4.6 mph - 0.00 in   Overcast
9:15 AM 46.4 °F 45.2 °F 46.4 °F 100% 30.16 in 10.0 mi North 3.5 mph - 0.00 in   Overcast
9:35 AM 46.4 °F 43.5 °F 46.4 °F 100% 30.17 in 10.0 mi NW 5.8 mph - 0.00 in   Overcast
10:15 AM 46.4 °F 44.3 °F 46.4 °F 100% 30.17 in 10.0 mi NW 4.6 mph - 0.00 in   Scattered Clouds
10:35 AM 46.4 °F 43.5 °F 46.4 °F 100% 30.18 in 10.0 mi WNW 5.8 mph - 0.00 in   Scattered Clouds
10:55 AM 46.4 °F 44.3 °F 46.4 °F 100% 30.18 in 10.0 mi NNW 4.6 mph - 0.00 in   Mostly Cloudy
11:15 AM 46.4 °F 43.5 °F 46.4 °F 100% 30.18 in 10.0 mi NW 5.8 mph - 0.00 in   Mostly Cloudy
11:35 AM 46.4 °F 44.3 °F 46.4 °F 100% 30.18 in 10.0 mi NNW 4.6 mph - 0.00 in   Scattered Clouds
11:55 AM 46.4 °F 44.3 °F 46.4 °F 100% 30.18 in 10.0 mi NNW 4.6 mph - 0.00 in   Clear
12:15 PM 46.4 °F 43.5 °F 46.4 °F 100% 30.17 in 10.0 mi NW 5.8 mph - 0.00 in   Clear
12:35 PM 46.4 °F 44.3 °F 46.4 °F 100% 30.17 in 10.0 mi NNW 4.6 mph - 0.00 in   Partly Cloudy
12:55 PM 46.4 °F 42.4 °F 46.4 °F 100% 30.17 in 10.0 mi NW 8.1 mph - 0.00 in   Partly Cloudy
1:15 PM 46.4 °F 41.9 °F 46.4 °F 100% 30.17 in 10.0 mi NW 9.2 mph - 0.00 in   Scattered Clouds
1:35 PM 46.4 °F 42.4 °F 46.4 °F 100% 30.16 in 10.0 mi NNW 8.1 mph - 0.00 in   Mostly Cloudy
1:55 PM 48.2 °F - 48.2 °F 100% 30.17 in 10.0 mi NW 6.9 mph - 0.00 in   Overcast
2:15 PM 48.2 °F - 48.2 °F 100% 30.17 in 10.0 mi NNW 6.9 mph - 0.00 in   Overcast
2:35 PM 48.2 °F - 48.2 °F 100% 30.17 in 10.0 mi NNW 6.9 mph - 0.00 in   Overcast
2:55 PM 48.2 °F - 48.2 °F 100% 30.16 in 9.0 mi NNW 8.1 mph - 0.00 in   Overcast
3:15 PM 48.2 °F - 48.2 °F 100% 30.16 in 6.0 mi NNW 8.1 mph - 0.00 in   Overcast
3:35 PM 48.2 °F - 48.2 °F 100% 30.16 in 8.0 mi NNW 8.1 mph - 0.00 in   Mostly Cloudy
3:55 PM 46.4 °F 42.4 °F 46.4 °F 100% 30.16 in 7.0 mi NNW 8.1 mph - 0.00 in   Scattered Clouds
4:15 PM 46.4 °F 42.9 °F 46.4 °F 100% 30.16 in 10.0 mi NNW 6.9 mph - 0.00 in   Scattered Clouds
4:35 PM 46.4 °F 42.9 °F 46.4 °F 100% 30.16 in 10.0 mi NNW 6.9 mph - 0.00 in   Mostly Cloudy
4:55 PM 46.4 °F 42.9 °F 46.4 °F 100% 30.16 in 10.0 mi NNW 6.9 mph - 0.00 in   Overcast
5:15 PM 46.4 °F 42.4 °F 46.4 °F 100% 30.16 in 10.0 mi NNW 8.1 mph - 0.00 in   Overcast
5:35 PM 46.4 °F 42.4 °F 46.4 °F 100% 30.16 in 10.0 mi NW 8.1 mph - 0.00 in   Overcast
5:55 PM 46.4 °F 42.9 °F 46.4 °F 100% 30.16 in 10.0 mi North 6.9 mph - 0.00 in   Mostly Cloudy
6:15 PM 46.4 °F 42.9 °F 46.4 °F 100% 30.16 in 10.0 mi NNW 6.9 mph - 0.00 in   Partly Cloudy
6:35 PM 46.4 °F 43.5 °F 46.4 °F 100% 30.16 in 10.0 mi NNW 5.8 mph - 0.00 in   Partly Cloudy
6:55 PM 46.4 °F 43.5 °F 46.4 °F 100% 30.17 in 10.0 mi NNW 5.8 mph - 0.00 in   Partly Cloudy
7:15 PM 46.4 °F 44.3 °F 46.4 °F 100% 30.16 in 10.0 mi North 4.6 mph - 0.00 in   Clear
7:35 PM 46.4 °F 44.3 °F 46.4 °F 100% 30.16 in 10.0 mi North 4.6 mph - 0.00 in   Clear
7:55 PM 46.4 °F 45.2 °F 46.4 °F 100% 30.17 in 9.0 mi NNW 3.5 mph - 0.00 in   Clear
8:15 PM 46.4 °F 44.3 °F 46.4 °F 100% 30.16 in 10.0 mi NNW 4.6 mph - 0.00 in   Clear
8:35 PM 44.6 °F - 44.6 °F 100% 30.16 in 10.0 mi Calm Calm - 0.00 in   Clear
8:55 PM 44.6 °F 43.1 °F 44.6 °F 100% 30.16 in 10.0 mi NW 3.5 mph - 0.00 in   Clear
9:15 PM 46.4 °F 45.2 °F 46.4 °F 100% 30.16 in 10.0 mi NW 3.5 mph - 0.00 in   Clear
9:35 PM 44.6 °F 42.2 °F 44.6 °F 100% 30.16 in 10.0 mi NW 4.6 mph - 0.00 in   Scattered Clouds
9:55 PM 44.6 °F 41.4 °F 44.6 °F 100% 30.16 in 10.0 mi North 5.8 mph - 0.00 in   Mostly Cloudy
10:15 PM 46.4 °F - 46.4 °F 100% 30.16 in 10.0 mi Calm Calm - 0.00 in   Overcast
10:35 PM 44.6 °F - 44.6 °F 100% 30.16 in 10.0 mi Calm Calm - 0.00 in   Overcast
10:55 PM 46.4 °F 44.3 °F 46.4 °F 100% 30.16 in 10.0 mi NNE 4.6 mph - 0.00 in   Overcast
11:15 PM 46.4 °F - 46.4 °F 100% 30.16 in 10.0 mi Calm Calm - 0.00 in   Overcast
11:35 PM 46.4 °F - 46.4 °F 100% 30.16 in 10.0 mi Calm Calm - 0.00 in   Overcast
11:55 PM 46.4 °F - 46.4 °F 100% 30.16 in 10.0 mi Calm Calm - 0.00 in   Overcast